Regional Weather Roundup
Issued by NWS

Home | Current Version | Previous Version | Text Only | Print | Product List | Glossary Off
Versions: 1 2 3 4 5 6 7 8 9 10 11 12 13 14 15 16 17 18 19 20 21 22 23 24 25 26 27

000
ASUS45 KSLC 240010
RWRUT

UTAH REGIONAL WEATHER ROUNDUP
NATIONAL WEATHER SERVICE SALT LAKE CITY UT
600 PM MDT MON APR 23 2018

UTZ001>011-023>025-240100-

NORTHERN UTAH

CITY           SKY/WX    TMP DP  RH WIND       PRES   REMARKS
BRIGHAM CITY   MOSUNNY   63  21  19 N12       30.16S
HILL AFB       NOT AVBL
LOGAN          MOSUNNY   60  29  30 N13       30.16R
OGDEN          MOSUNNY   62  21  20 N12       30.15R
SALT LAKE CITY PTSUNNY   64  18  17 N12       30.15S
TOOELE VALLEY  MOSUNNY   61  25  25 N12       30.16S
WENDOVER       MOSUNNY   66  17  15 E9        30.12S
HEBER CITY       N/A     63  18  17 S3        30.12S
WEST JORDAN    SUNNY     61  24  25 NW10G16   30.17R

$$

UTZ011>015-024>027-240100-

CENTRAL/NORTHEAST UTAH

CITY           SKY/WX    TMP DP  RH WIND       PRES   REMARKS
PROVO AIRPORT  PTSUNNY   64  31  28 NW18      30.13S
MOAB/CANYONLAN PTSUNNY   77  24  14 NW17      29.94R
DELTA          PTSUNNY   66  23  19 N12       30.09S
PRICE          PTSUNNY   65  17  15 W17G25    30.07S
RICHFIELD      PTSUNNY   68  30  24 W6G15     30.07R
ROOSEVELT      PTSUNNY   70  19  14 W22G29    30.05S
VERNAL         CLOUDY    68  16  13 W18G25    30.02R

$$

UTZ013>016-019>022-027-240100-

SOUTHERN UTAH

CITY           SKY/WX    TMP DP  RH WIND       PRES   REMARKS
BRYCE CANYON   PTSUNNY   65  19  17 NW13G20   30.17S
CEDAR CITY     PTSUNNY   73  19  13 S13G26    30.04S
MILFORD        PTSUNNY   70  38  31 MISG      30.06S
ST GEORGE      PTCLDY    87  20   8 W15       29.91F
HANKSVILLE     CLOUDY    79  23  12 N8        29.96R
KANAB          SUNNY     79  14   8 W13G21    30.06S
BLANDING         N/A     74  15  10 SW15G22   30.12S

$$

REGIONAL REPORTS     COLORADO/ARIZONA

CITY           SKY/WX    TMP DP  RH WIND       PRES   REMARKS
CRAIG, CO      CLOUDY    61  37  41 N15G23    30.06R
GRAND JUNCTION CLOUDY    77  23  13 W20       29.95F
RIFLE, CO      CLOUDY    73  23  15 NW8       29.99S
MONTROSE, CO   PTSUNNY   74  13   9 W12       30.01S
CORTEZ, CO     SUNNY     75   5   6 VRB6G26   30.06F
COLORADO CITY    N/A     81  21  11 W12       30.06F
PAGE, AZ       SUNNY     85  18   8 W9        29.94F
GRAND CANYON   SUNNY     73   8   8 SW17G26   30.14S
KINGMAN, AZ    SUNNY     85  22  10 SW12      29.98F
FLAGSTAFF, AZ  SUNNY     70  17  13 SW17      30.17F

$$

REGIONAL REPORTS    NEVADA/IDAHO/WYOMING

CITY           SKY/WX    TMP DP  RH WIND       PRES   REMARKS
LAS VEGAS, NV  MOSUNNY   92  15   6 VRB5      29.86S
ELY, NY        PTSUNNY   64   8  11 NW9       30.15F
ELKO, NV       SUNNY     64  18  17 SW12      30.16S
POCATELLO, ID  PTSUNNY   51  37  58 NE14      30.26S
BURLEY, ID     MOSUNNY   58  20  22 NW8       30.20R
FORT BRIDGER,    N/A     55  15  20 W18G31    30.21R
EVANSTON, WY   SUNNY     53  13  20 W16       30.20R
ROCK SPRINGS,  MOSUNNY   57  15  19 NW20G31   30.14R
KEMMERER, WY   SUNNY     48  19  32 W14G24    30.20S

$$




USA.gov is the U.S. government's official web portal to all federal, state and local government web resources and services.